Regional Weather Roundup
Issued by NWS Bismarck, ND

Home | Current Version | Previous Version | Text Only | Print | Product List | Glossary On
Versions: 1 2 3 4 5 6 7 8 9 10 11 12 13 14 15 16 17 18 19 20 21 22 23 24 25 26 27 28 29 30 31 32 33 34 35 36 37 38 39 40 41 42 43 44 45 46 47 48 49 50
000
ASUS43 KBIS 241102
RWRBIS

NWR BROADCAST TEXT
NATIONAL WEATHER SERVICE BISMARCK ND
600 AM CDT SUN SEP 24 2017

NOTE: "FAIR" INDICATES FEW OR NO CLOUDS BELOW 12,000 FEET WITH NO
SIGNIFICANT WEATHER AND/OR OBSTRUCTIONS TO VISIBILITY.


CITY           SKY/WX    TMP DP  RH WIND       PRES   REMARKS
WILLISTON      LGT RAIN  44  41  89 N12       30.11R
MINOT          LGT RAIN  47  46  97 NW10      30.04S
MINOT AFB      LGT RAIN  46  46  97 N10       30.03F
BISMARCK       LGT RAIN  49  48  97 N7        29.99R
DICKINSON      CLOUDY    44  43  96 N13       30.03R
GARRISON         N/A     45  45 100 N12       30.02F
HETTINGER ARPT LGT RAIN  44  42  93 N9        30.03S FOG
JAMESTOWN      LGT RAIN  50  48  93 N10G20    29.91S
CARRINGTON     LGT RAIN  50  48  93 N9G16     29.97R
LINTON         CLOUDY    48  48 100 N10       29.96S
TIOGA          CLOUDY    43  43 100 N10       30.11R
$$

CITY           SKY/WX    TMP DP  RH WIND       PRES   REMARKS
GRAND FORKS    RAIN      52  52 100 N16       29.90F
GRAND FORKS AF NOT AVBL
DEVILS LAKE    LGT RAIN  47  46  97 N16       29.96F
FARGO          RAIN      56  56 100 N7        29.87R FOG
CANDO          LGT RAIN  46  46 100 N14       30.01F
CAVALIER       LGT RAIN  50  50 100 N13       29.97F
GWINNER        CLOUDY    54  54 100 N5        29.87R
ROLLA          LGT RAIN  46  46 100 NE14      30.02S
WALHALLA       RAIN     N/A N/A N/A N15       30.00F
$$

CITY           SKY/WX    TMP DP  RH WIND       PRES   REMARKS
ABERDEEN       LGT RAIN  54  54 100 NE8       29.84F
MOBRIDGE       LGT RAIN  51  49  92 N13       29.89F
BUFFALO          N/A     45  43  93 N10       29.96F
GLASGOW        CLOUDY    46  41  82 CALM      30.12S
SIDNEY         LGT RAIN  44  41  89 N9        30.11S
WOLF POINT     CLOUDY    46  43  89 CALM      30.13S
GLENDIVE       LGT RAIN  42  40  92 N8        30.10F
MILES CITY     LGT RAIN  42  40  92 N6        30.10S
BAKER          CLOUDY    42  39  89 N13       30.07F
$$

CITY           SKY/WX    TMP DP  RH WIND       PRES   REMARKS
BILLINGS       PTCLDY    39  38  96 CALM      30.10S
GREAT FALLS    CLEAR     32  29  88 SW7       30.09S
$$





USA.gov is the U.S. government's official web portal to all federal, state and local government web resources and services.